Skip Page Navigation
NASA JPL Caltech
NASA Logo - Jet Propulsion Laboratory + View the NASA Portal
+ Center for Near-Earth Object Studies
JPL Home Earth Solar System Stars & Galaxies Technology
JPL Solar System Dynamics
BODIES ORBITS EPHEMERIDES TOOLS PHYSICAL DATA DISCOVERY FAQ SITE MAP
IMPORTANT: The SSD Announcement email list is now available. Major changes are coming in the near future, including possible hostname and/or URL changes. To be notified of such changes, subscribe to this email list.

Please visit this page for more details.


JPL Small-Body Database Browser
Search: [ help ]  
277557 (2005 YP124)
Classification: Main-belt Asteroid          SPK-ID: 2277557
Ephemeris | Orbit Diagram | Orbital Elements | Mission Design | Physical Parameters | Discovery Circumstances | Close-Approach Data ]

[ show orbit diagram ]
Orbital Elements at Epoch 2458600.5 (2019-Apr-27.0) TDB
Reference: JPL 15 (heliocentric ecliptic J2000)
 Element Value Uncertainty (1-sigma)   Units 
e .06916228862675856 5.257e-08  
a 2.805779589452735 3.6316e-08 au
q 2.611725451663937 1.5578e-07 au
i 7.086799334500725 8.3526e-06 deg
node 324.1674433041491 4.5722e-05 deg
peri 134.1518473734907 7.9264e-05 deg
M 305.866154170919 6.5321e-05 deg
tp 2458858.633954891231
(2020-Jan-10.13395489)
0.0003132 TDB
period 1716.638127914454
4.70
3.3328e-05
9.125e-08
d
yr
n .2097122242282737 4.0715e-09 deg/d
Q 2.999833727241533 3.8828e-08 au
  Orbit Determination Parameters
   # obs. used (total)      225  
   data-arc span      6967 days (19.07 yr)  
   first obs. used      1999-08-17  
   last obs. used      2018-09-13  
   planetary ephem.      DE431  
   SB-pert. ephem.      SB431-N16  
   condition code      0  
   norm. resid. RMS      .59148  
   source      ORB  
   producer      Otto Matic  
   solution date      2018-Oct-04 10:26:32  

Additional Information
 Earth MOID = 1.63453 au 
 Jupiter MOID = 2.10058 au 
 T_jup = 3.308 
[ show covariance matrix ]

Ephemeris | Orbit Diagram | Orbital Elements | Mission Design | Physical Parameters | Discovery Circumstances | Close-Approach Data ]

Physical Parameter Table
Parameter Symbol Value Units Sigma Reference Notes
absolute magnitude H 15.9   n/a MPO440345  
diameter diameter 3.512 km 0.994 urn:nasa:pds:neowise_diameters_albedos::2.0[mainbelt] (http://adsabs.harvard.edu/abs/2011ApJ...741...68M)  
geometric albedo albedo 0.069   0.046 urn:nasa:pds:neowise_diameters_albedos::2.0[mainbelt] (http://adsabs.harvard.edu/abs/2011ApJ...741...68M)  

277557 (2005 YP124)          Discovered 2005-Dec-26 by Spacewatch at Kitt Peak
Reference: 20110517/Numbers.arcLast Updated: 2011-05-20

[ show close-approach data ]
Ephemeris | Orbit Diagram | Orbital Elements | Mission Design | Physical Parameters | Discovery Circumstances | Close-Approach Data ]
ABOUT SSD CREDITS/AWARDS PRIVACY/COPYRIGHT GLOSSARY LINKS
FirstGov 2019-Dec-11 17:30 UT
(server date/time)  
NASA Home Page
Site Manager:   Ryan S. Park
Webmaster  Alan B. Chamberlin